FW4213 Weather Reports


Display with metric or nautical units.
time (UTC)temp
F
wind
direction
speed
MPH
gust
MPH
rain 1hr
in
rain 24hr
in
rain mn
in
humidity
%
barometer
mb
20260904161532 54 319 0.0 4.0 0.00 0.10 0.03 92 1015.9
20260904160028 53 225 0.0 0.0 0.00 0.10 0.03 93 1016.0
20260904153029 53 162 0.0 0.0 0.00 0.10 0.03 94 1015.7
20260904150035 52 157 0.0 2.0 0.00 0.10 0.03 96 1015.6
20260904144531 52 147 1.0 3.0 0.01 0.10 0.03 97 1015.5
20260904143034 51 136 0.0 3.0 0.01 0.10 0.03 97 1015.3
20260904141536 51 114 0.0 3.0 0.01 0.10 0.03 97 1015.1
20260904140034 51 140 3.0 5.0 0.01 0.10 0.02 97 1015.0
20260904134607 51 142 3.0 4.0 0.00 0.09 0.02 97 1014.8
20260904123034 51 155 2.0 5.0 0.01 0.09 0.02 96 1014.4
20260904121651 51 141 3.0 5.0 0.01 0.09 0.02 94 1014.4
20260904120108 51 112 0.0 2.0 0.01 0.09 0.01 94 1014.3
20260904114531 52 114 0.0 4.0 0.00 0.08 0.01 94 1014.1
20260904113031 52 137 2.0 5.0 0.00 0.08 0.01 93 1014.0
20260904111530 52 140 1.0 4.0 0.00 0.08 0.01 93 1013.9
20260904110143 51 124 1.0 5.0 0.00 0.08 0.01 94 1013.7
20260904104607 51 134 2.0 7.0 0.00 0.08 0.01 94 1013.6
20260904101530 51 142 4.0 7.0 0.01 0.08 0.01 93 1013.4
20260904100107 52 154 2.0 6.0 0.01 0.08 0.01 93 1013.2
20260904094531 52 94 0.0 3.0 0.01 0.08 0.01 93 1013.1
20260904093028 52 147 0.0 3.0 0.01 0.08 0.00 93 1013.1
20260904091535 51 146 2.0 6.0 0.00 0.07 0.00 93 1013.1
20260904090035 51 136 2.0 5.0 0.00 0.07 0.00 92 1013.1
20260904084531 51 150 4.0 7.0 0.00 0.07 0.00 92 1013.1
20260904083106 51 137 5.0 8.0 0.00 0.07 0.00 92 1013.0
20260904081535 52 133 4.0 8.0 0.00 0.07 0.00 92 1012.8
20260904080033 52 141 5.0 7.0 0.00 0.07 0.00 92 1012.9
20260904073031 52 150 4.0 7.0 0.00 0.07 0.00 93 1012.8
20260904071530 52 158 3.0 5.0 0.00 0.07 0.00 92 1012.9
20260904070034 52 157 2.0 5.0 0.00 0.07 0.00 92 1012.8
20260904064531 52 129 3.0 5.0 0.00 0.07 0.07 92 1012.6
20260904063107 53 138 5.0 8.0 0.00 0.07 0.07 92 1012.6
20260904061534 53 144 5.0 7.0 0.00 0.07 0.07 92 1012.6
20260904060030 53 147 5.0 8.0 0.00 0.07 0.07 92 1012.6
20260904051530 53 146 3.0 6.0 0.00 0.07 0.07 90 1012.6
20260904050108 54 141 4.0 6.0 0.00 0.07 0.07 90 1012.7
20260904044531 54 137 5.0 8.0 0.00 0.07 0.07 90 1012.6
20260904043032 54 152 5.0 8.0 0.00 0.07 0.07 90 1012.6
20260904040201 55 140 5.0 9.0 0.00 0.07 0.07 90 1012.7
20260904034532 55 156 5.0 9.0 0.00 0.07 0.07 91 1012.6
20260904033034 55 152 4.0 6.0 0.00 0.07 0.07 90 1012.4
20260904030030 57 156 3.0 4.0 0.00 0.08 0.07 89 1012.3
20260904023031 57 219 1.0 4.0 0.00 0.14 0.07 87 1012.1
20260904021534 58 337 0.0 1.0 0.00 0.17 0.07 85 1012.1
20260904020035 58 213 0.0 3.0 0.00 0.19 0.07 85 1012.1
20260904014534 59 331 0.0 3.0 0.00 0.19 0.07 87 1011.9
20260904013037 60 67 0.0 2.0 0.02 0.19 0.07 86 1011.7
20260904003037 57 148 4.0 9.0 0.05 0.18 0.04 85 1011.9
20260904001530 58 185 3.0 7.0 0.04 0.18 0.02 80 1012.1
20260904000032 60 203 3.0 5.0 0.02 0.16 0.00 71 1012.1
20260903234531 61 202 4.0 7.0 0.00 0.14 0.00 66 1011.9
20260903233036 63 253 2.0 6.0 0.00 0.14 0.00 62 1011.8
20260903231536 63 260 2.0 7.0 0.00 0.14 0.00 62 1011.7
20260903223142 65 268 3.0 9.0 0.00 0.15 0.00 59 1011.7
20260903220031 67 304 4.0 13.0 0.00 0.16 0.00 49 1011.4
20260903214607 67 311 3.0 9.0 0.00 0.16 0.00 47 1011.4
20260903213033 67 314 4.0 9.0 0.00 0.17 0.00 48 1011.4
20260903210031 66 310 2.0 6.0 0.00 0.19 0.00 53 1011.6
20260903204535 66 338 4.0 10.0 0.00 0.20 0.00 55 1011.7
20260903203107 65 282 1.0 5.0 0.00 0.21 0.00 56 1011.8
20260903200030 64 327 2.0 6.0 0.00 0.21 0.00 59 1012.3
20260903194533 63 327 2.0 7.0 0.00 0.22 0.00 63 1012.6
20260903193030 61 337 2.0 6.0 0.00 0.23 0.00 74 1012.8
20260903191534 60 323 2.0 4.0 0.00 0.23 0.00 75 1013.0
20260903183029 60 275 1.0 4.0 0.00 0.23 0.00 77 1013.2
20260903181538 58 321 2.0 5.0 0.00 0.23 0.00 80 1013.3
20260903180035 57 186 1.0 3.0 0.00 0.23 0.00 85 1013.5
20260903174531 56 276 0.0 3.0 0.00 0.23 0.00 87 1013.5
20260903173106 55 317 1.0 4.0 0.00 0.23 0.00 89 1013.6
20260903171532 55 322 1.0 4.0 0.00 0.23 0.00 90 1013.6
20260903170127 54 331 1.0 3.0 0.00 0.23 0.00 91 1013.7
20260903164529 54 358 1.0 3.0 0.00 0.23 0.00 91 1013.6
20260903163038 53 29 0.0 3.0 0.00 0.23 0.00 93 1013.7